Aeroporto :
LOGIN :

Iscrizione | Disclaimer

   EN    FR    IT 

 










Sommario :    VFR   VFR Marginale   IFR   IFR Intensivo   IFR Molto Intensivo
Visibilità : 
Base nubi : 
>= 8 km
>= 3000ft
5 / 8 km
1000 / 3000 ft
1500m / 5 km
500 / 1000 ft
800 / 1500m
200 / 500 ft
< 800m
< 200 ft
Simboli :   Temporali  Nebbia  Neve Forte  Precipitazioni Forti  Vento > 20 kt
SIGMETs :   Varie  Temporali  Ghiacco  Turbolenza  Onda orograficha  Ceneri Vulcaniche






- Altitudine del aeroporto : 124 ft
- Codice IATA : AVN


LFMV - Avignon Caumont

ULTIMO METAR :
  • 031400Z AUTO 35024G37KT 320V040 9000 NSC 27/09 Q1014 NOSIG

METARs OBSOLETI :
  • 031330Z AUTO 34024G35KT 310V020 CAVOK 28/09 Q1014 NOSIG
  • 031300Z AUTO 34024G36KT 300V010 9000 NSC 27/09 Q1014 NOSIG
  • 031230Z AUTO 34025G37KT CAVOK 27/09 Q1015 NOSIG
  • 031200Z AUTO 35022KT 9999 FEW064 27/10 Q1015 TEMPO 34025G40KT
  • 031130Z AUTO 34024G35KT CAVOK 26/09 Q1015 NOSIG

TAF TAF LFMV
Valido dal 03 a 09 ore il 04 a 09 ore UTC


030800Z 0309/0409 34020G30KT CAVOK
TEMPO 0309/0319 34025G40KT
TEMPO 0400/0408 34025G40KT
ATIS : +33 4 90 84 32 84



MetMap, La meteo Aeronautica in un colpo d'occhio ! - Copyright ORBIFLY Dicembre 2007 - Disclaimer

ORBIFLY MET'MAP TEAM :

Programmazione e sviluppo : Alexandra Zaïnal
Concezione : Baudouin d'Aumeries
Aiuto per la programmazione : Marc-Olivier Méhu
Supporto tecnico e logistico : Manuel Goepfert
Aiuto per la traduzione : Arnaldo La Scala

Contatto : metmap@orbifly.com




FONTI E CREDITI :

   NOAA